sat.trackr.live / text

‹ back to catalog

STARLINK-36658

NORAD 67846 · 2026-033AB

PAYLOAD ACTIVE UNKNOWN

§ Identity

Operator
Country
US
Launch date
2026-02-16
Launch site
AFETR
Launch vehicle
Mass (kg)
RCS (m²)

Purposes: comms

External: N2YO · Heavens-Above · Gunter

§ Orbital elements

Epoch: 2026-05-24T14:55:45.485472Z

Period
94.27 min
Inclination
42.9994°
Eccentricity
0.0001832
Mean motion
15.27585627 rev/d
Perigee alt
481.8 km
Apogee alt
484.3 km
Semi-major
6,861.2 km
B*
3.6670e-4
RAAN
198.5096°
Arg perigee
271.6651°
Mean anomaly
88.3991°
Rev number
1,628

§ Raw data

STARLINK-366581 67846U 26033AB  26144.62205423  .00009844  00000+0  36670-3 0  99952 67846  42.9994 198.5096 0001832 271.6651  88.3991 15.27585627 16283

JSON: /api/v1/satellites/67846 · /tle

For live sub-satellite position, see the globe view (requires WebGL).

§ Visibility from observer

Set your observer location to see the next 7 days of passes ≥ 10°. The values pass through the URL so the page stays shareable.

No JS? Fill the form by hand. The geolocation button needs JavaScript.